Flag for Puerto Rico Weather past 2 weeks in San Juan, Puerto Rico

Now
83 °F

Passing clouds.


Feels Like: 90 °F
Forecast: 80 / 87 °F
Wind: 7 mph from East

Location: Luis Munoz Marin

Current Time: Oct 21, 2014 at 8:48:40 PM

Latest Report: Oct 21, 2014 at 7:56 PM


Visibility: 10 mi

Pressure: 29.93 "Hg

Humidity: 77%

Dew point: 75 °F

Location of San JuanLocation

Historic Weather in San Juan — Graph

°F

San Juan temperature yesterday

Maximum temperature yesterday: 88 °F (at 11:56 AM)
Minimum temperature yesterday: 79 °F (at 4:56 AM)
Average temperature yesterday: 83 °F

Past Weeks' High & Low Weather Summary

 TemperatureHumidityPressure
High93 °F (Oct 11, 12:56 PM)97% (Oct 13, 12:56 AM)30.02 "Hg (Oct 13, 12:56 AM)
Low76 °F (Oct 13, 9:56 PM)52% (Oct 11, 12:56 PM)29.78 "Hg (Oct 9, 3:56 PM)
Average83 °F78%29.91 "Hg
* Reported Oct 6 7:56 PM — Oct 21 7:56 PM, San Juan, Weather by CustomWeather, © 2014

Note: Actual official high and low records may vary slightly from our data, if they occured in-between our weather recording intervals... More about our weather records

Advertising

San Juan weather history for previous 24 hours

 ConditionsComfort  
Time TempWeatherWind HumidityBarometerVisibility
7:56 PM
Oct 21
83 °FPassing clouds.7 mph77%29.93 "Hg10 mi
6:56 PM82 °FScattered clouds.9 mph82%29.91 "Hg10 mi
5:56 PM83 °FScattered clouds.12 mph79%29.90 "Hg10 mi
4:56 PM85 °FScattered clouds.15 mph75%29.89 "Hg10 mi
3:56 PM86 °FScattered clouds.15 mph72%29.89 "Hg10 mi
2:56 PM85 °FScattered clouds.12 mph72%29.89 "Hg10 mi
1:56 PM85 °FScattered clouds.15 mph72%29.90 "Hg10 mi
12:56 PM88 °FScattered clouds.18 mph65%29.92 "Hg10 mi
11:56 AM88 °FScattered clouds.14 mph65%29.95 "Hg10 mi
10:56 AM88 °FScattered clouds.12 mph65%29.97 "Hg10 mi
9:56 AM87 °FScattered clouds.10 mph65%29.98 "Hg10 mi
8:56 AM85 °FScattered clouds.7 mph72%29.98 "Hg10 mi
7:56 AM83 °FScattered clouds.No wind74%29.96 "Hg10 mi
6:56 AM80 °FPassing clouds.No wind81%29.94 "Hg10 mi
5:56 AM79 °FPassing clouds.No wind84%29.93 "Hg10 mi
4:56 AM78 °FClear.No wind84%29.90 "Hg10 mi
3:56 AM79 °FPassing clouds.No wind84%29.90 "Hg10 mi
2:56 AM79 °FPassing clouds.No wind82%29.90 "Hg10 mi
1:56 AM79 °FPassing clouds.No wind82%29.92 "Hg10 mi
12:56 AM80 °FPassing clouds.No wind81%29.95 "Hg10 mi
11:56 PM
Oct 20
81 °FPassing clouds.No wind79%29.97 "Hg10 mi
10:56 PM81 °FPassing clouds.No wind82%29.97 "Hg10 mi
9:56 PM81 °FPassing clouds.No wind82%29.96 "Hg10 mi
8:56 PM81 °FPassing clouds.6 mph82%29.95 "Hg10 mi
Weather by CustomWeather, © 2014

See weather overviewHow to use our weather pages